{"data":{"norad_id":57639,"intl_designator":"2023-122H","name":"STARLINK-30326","alt_names":[],"object_type":"PAYLOAD","status":"ACTIVE","operator":null,"country":"US","launch_date":"2023-08-17","launch_site_code":"AFETR","launch_vehicle":null,"mission":null,"orbit_class":"UNKNOWN","rcs_meters":null,"size_class":null,"mass_kg":null,"dimensions":null,"purposes":["comms"],"wikipedia_slug":null,"has_3d_model":false,"image_url":null,"decayed_at":null,"tle_current":{"epoch":"2026-09-20T04:38:13.638624Z","epoch_age_seconds":158217,"freshness":"FRESH","line1":"1 57639U 23122H   26263.19321341  .00001371  00000+0  59316-4 0  9992","line2":"2 57639  43.0048  74.0505 0001366 264.4459  95.6237 15.27589510171950","mean_motion":15.2758951,"eccentricity":0.0001366,"inclination_deg":43.0048,"raan_deg":74.0505,"arg_perigee_deg":264.4459,"mean_anomaly_deg":95.6237,"bstar":5.9316e-5,"rev_number":17195,"period_min":94.266161856532,"perigee_km":482.08338569531,"apogee_km":483.95785395705,"semimajor_km":6861.1576198262,"source":"CELESTRAK","updated_at":"2026-09-21T09:00:33.666479Z"}}}